Randolph, MN

12:38 AM CDT on August 26, 2016 (GMT -0500)
Stanton

Weather History for KSYN - September, 2013

Change the Weather History Date:

Friday, September 20, 2013

  Actual Average (KLVN) Record (KLVN)
Temperature  
Mean Temperature 56 °F -  
Max Temperature 64 °F 68 °F 82 °F (1984)
Min Temperature 49 °F 47 °F 30 °F (1991)
Degree Days  
Heating Degree Days 8    
Growing Degree Days 6 (Base 50)    
Moisture  
Dew Point 51 °F    
Average Humidity 76    
Maximum Humidity 88    
Minimum Humidity 55    
Precipitation  
Precipitation 0.01 in - - ()
Sea Level Pressure  
Sea Level Pressure 29.86 in    
Wind  
Wind Speed 9 mph (WNW)    
Max Wind Speed 18 mph    
Max Gust Speed 28 mph    
Visibility 10 miles    
Events Rain    
Averages and records for this station are not official NWS values.
T = Trace of Precipitation, MM = Missing Value Source: NWS Daily Summary

Daily Weather History Graph

Daily Weather History Graph

Search for Another Location

Airport or City:

Trip Planner

Search our weather history database for the weather conditions in past years. The results will help you decide how hot, cold, wet, or windy it might be!

Date:

Astronomy

Sep. 20, 2013 Rise Set
Actual Time 6:57 AM CDT 7:12 PM CDT
Civil Twilight 6:28 AM CDT 7:41 PM CDT
Nautical Twilight 5:53 AM CDT 8:15 PM CDT
Astronomical Twilight 5:18 AM CDT 8:50 PM CDT
Moon 7:41 PM CDT (9/20) 8:17 AM CDT (9/20)
Length of Visible Light 13h 13m
Length of Day
12h 15m
Full, 98% of the Moon is Illuminated
Sep 20
Full
Sep 26
Last Quarter
Oct 4
New
Oct 11
First Quarter
Oct 18
Full

Hourly Weather History & Observations

Time (CDT) Temp. Dew Point Humidity Pressure Visibility Wind Dir Wind Speed Gust Speed Precip Events Conditions
12:12 AM 64.4 °F 59.0 °F 83% 29.78 in 10.0 mi West 5.8 mph - N/A   Clear
12:32 AM 63.5 °F 57.6 °F 81% 29.79 in 10.0 mi West 9.2 mph - N/A   Scattered Clouds
12:51 AM 62.8 °F 54.7 °F 75% 29.80 in 10.0 mi West 9.2 mph - N/A   Clear
1:12 AM 62.8 °F 53.1 °F 71% 29.80 in 10.0 mi WNW 8.1 mph - N/A   Scattered Clouds
1:32 AM 62.6 °F 52.9 °F 70% 29.81 in 10.0 mi West 11.5 mph - N/A   Mostly Cloudy
1:51 AM 62.2 °F 52.3 °F 70% 29.81 in 10.0 mi WNW 8.1 mph - N/A   Overcast
2:12 AM 61.7 °F 52.3 °F 71% 29.82 in 10.0 mi West 8.1 mph - N/A   Mostly Cloudy
2:32 AM 61.2 °F 52.7 °F 74% 29.81 in 10.0 mi WNW 6.9 mph - N/A   Mostly Cloudy
2:51 AM 60.8 °F 52.7 °F 75% 29.81 in 10.0 mi West 9.2 mph - N/A   Overcast
3:12 AM 59.9 °F 53.1 °F 78% 29.82 in 10.0 mi West 10.4 mph - N/A   Overcast
3:31 AM 59.4 °F 53.1 °F 80% 29.82 in 10.0 mi West 9.2 mph - N/A   Mostly Cloudy
3:52 AM 59.2 °F 52.9 °F 80% 29.82 in 10.0 mi West 10.4 mph - N/A   Overcast
4:12 AM 58.5 °F 52.2 °F 80% 29.82 in 10.0 mi West 8.1 mph - N/A   Overcast
4:31 AM 57.6 °F 52.0 °F 82% 29.82 in 10.0 mi West 6.9 mph - N/A   Overcast
4:52 AM 57.6 °F 51.8 °F 81% 29.82 in 10.0 mi West 10.4 mph 16.1 mph N/A   Overcast
5:12 AM 56.7 °F 51.4 °F 83% 29.83 in 10.0 mi West 11.5 mph - N/A   Mostly Cloudy
5:32 AM 55.9 °F 50.9 °F 83% 29.82 in 10.0 mi West 9.2 mph - N/A   Scattered Clouds
5:52 AM 55.0 °F 50.7 °F 85% 29.82 in 10.0 mi West 6.9 mph - N/A   Scattered Clouds
6:12 AM 54.5 °F 50.5 °F 86% 29.82 in 10.0 mi West 4.6 mph - N/A   Scattered Clouds
6:32 AM 54.1 °F 50.4 °F 87% 29.83 in 10.0 mi West 6.9 mph - N/A   Scattered Clouds
6:52 AM 54.9 °F 50.7 °F 86% 29.83 in 10.0 mi West 8.1 mph 16.1 mph N/A   Mostly Cloudy
7:12 AM 54.9 °F 50.9 °F 86% 29.84 in 10.0 mi West 10.4 mph 18.4 mph N/A   Overcast
7:32 AM 55.4 °F 50.9 °F 85% 29.85 in 10.0 mi West 8.1 mph - N/A   Overcast
7:52 AM 55.6 °F 51.1 °F 85% 29.85 in 10.0 mi West 8.1 mph - N/A   Overcast
8:12 AM 55.8 °F 51.3 °F 85% 29.85 in 10.0 mi West 6.9 mph - N/A   Overcast
8:32 AM 56.3 °F 51.8 °F 85% 29.85 in 10.0 mi West 6.9 mph - N/A   Overcast
8:51 AM 56.3 °F 52.2 °F 86% 29.85 in 5.0 mi WSW 8.1 mph - N/A   Overcast
9:12 AM 56.3 °F 52.9 °F 88% 29.85 in 3.0 mi WSW 6.9 mph - N/A   Overcast
9:31 AM 57.2 °F 53.1 °F 86% 29.85 in 5.0 mi West 9.2 mph - N/A   Overcast
9:52 AM 58.1 °F 53.2 °F 84% 29.85 in 10.0 mi WSW 6.9 mph - N/A   Overcast
10:12 AM 60.1 °F 54.0 °F 80% 29.85 in 10.0 mi West 9.2 mph - N/A   Overcast
10:31 AM 59.4 °F 53.2 °F 80% 29.85 in 10.0 mi West 12.7 mph - N/A   Overcast
10:52 AM 59.9 °F 54.0 °F 81% 29.86 in 10.0 mi West 10.4 mph - N/A   Overcast
11:12 AM 59.2 °F 55.0 °F 86% 29.86 in 2.0 mi West 10.4 mph - N/A Rain Rain
11:31 AM 59.0 °F 55.2 °F 87% 29.86 in 5.0 mi West 12.7 mph 18.4 mph N/A   Overcast
11:52 AM 59.9 °F 54.7 °F 83% 29.86 in 10.0 mi West 12.7 mph 21.9 mph N/A   Overcast
12:12 PM 60.8 °F 53.8 °F 78% 29.86 in 10.0 mi WNW 17.3 mph 21.9 mph N/A   Overcast
12:32 PM 61.3 °F 53.1 °F 74% 29.86 in 10.0 mi WNW 16.1 mph - N/A   Overcast
12:51 PM 61.3 °F 51.8 °F 71% 29.87 in 10.0 mi WNW 18.4 mph 27.6 mph N/A   Overcast
1:12 PM 62.6 °F 51.8 °F 68% 29.86 in 10.0 mi WNW 15.0 mph 21.9 mph N/A   Overcast
1:32 PM 63.7 °F 50.2 °F 61% 29.86 in 10.0 mi WNW 16.1 mph 23.0 mph N/A   Mostly Cloudy
1:51 PM 63.7 °F 50.0 °F 61% 29.86 in 10.0 mi WNW 15.0 mph 24.2 mph N/A   Mostly Cloudy
2:12 PM 63.5 °F 49.3 °F 60% 29.86 in 10.0 mi WNW 12.7 mph 19.6 mph N/A   Mostly Cloudy
2:32 PM 64.8 °F 50.5 °F 60% 29.86 in 10.0 mi WNW 12.7 mph - N/A   Overcast
2:51 PM 64.4 °F 49.6 °F 59% 29.86 in 10.0 mi West 13.8 mph 19.6 mph N/A   Overcast
3:12 PM 64.8 °F 49.5 °F 58% 29.85 in 10.0 mi WNW 17.3 mph 23.0 mph N/A   Overcast
3:32 PM 64.8 °F 49.3 °F 57% 29.85 in 10.0 mi WNW 15.0 mph 18.4 mph N/A   Overcast
3:51 PM 64.0 °F 48.0 °F 56% 29.85 in 10.0 mi NW 12.7 mph 18.4 mph N/A   Overcast
4:12 PM 64.2 °F 48.4 °F 56% 29.85 in 10.0 mi NW 10.4 mph - N/A   Overcast
4:32 PM 64.6 °F 48.2 °F 55% 29.85 in 10.0 mi WNW 11.5 mph 18.4 mph N/A   Mostly Cloudy
4:51 PM 63.5 °F 47.8 °F 57% 29.86 in 10.0 mi WNW 15.0 mph - N/A   Mostly Cloudy
5:12 PM 63.1 °F 48.6 °F 59% 29.86 in 10.0 mi NW 8.1 mph - N/A   Overcast
5:32 PM 64.4 °F 48.4 °F 56% 29.86 in 10.0 mi WNW 11.5 mph - N/A   Overcast
5:51 PM 62.6 °F 48.2 °F 59% 29.86 in 10.0 mi West 12.7 mph 17.3 mph N/A   Mostly Cloudy
6:12 PM 61.7 °F 49.1 °F 63% 29.86 in 10.0 mi West 15.0 mph - N/A   Mostly Cloudy
6:32 PM 57.0 °F 51.3 °F 81% 29.88 in 5.0 mi NW 10.4 mph - 0.01 in Rain Light Rain
6:51 PM 57.4 °F 52.0 °F 82% 29.88 in 10.0 mi WNW 9.2 mph - 0.01 in   Overcast
7:12 PM 57.2 °F 51.8 °F 82% 29.88 in 10.0 mi WNW 9.2 mph - N/A   Overcast
7:32 PM 56.5 °F 50.4 °F 80% 29.89 in 10.0 mi WNW 10.4 mph - N/A   Light Drizzle
7:52 PM 56.3 °F 50.2 °F 80% 29.90 in 10.0 mi WNW 9.2 mph - N/A   Overcast
8:12 PM 55.9 °F 49.8 °F 80% 29.91 in 10.0 mi NW 10.4 mph - N/A   Overcast
8:32 PM 54.7 °F 49.6 °F 83% 29.91 in 10.0 mi NW 8.1 mph - N/A   Overcast
8:52 PM 54.5 °F 49.5 °F 83% 29.91 in 10.0 mi WNW 4.6 mph - N/A   Overcast
9:12 PM 54.9 °F 49.5 °F 82% 29.92 in 10.0 mi West 5.8 mph - N/A   Overcast
9:32 PM 54.9 °F 48.4 °F 79% 29.92 in 10.0 mi WNW 9.2 mph - N/A   Overcast
9:51 PM 53.8 °F 47.8 °F 80% 29.92 in 10.0 mi West 6.9 mph - N/A   Overcast
10:12 PM 53.1 °F 47.3 °F 81% 29.92 in 10.0 mi WNW 5.8 mph - N/A   Mostly Cloudy
10:32 PM 51.4 °F 46.9 °F 85% 29.93 in 10.0 mi WNW 6.9 mph - N/A   Clear
10:51 PM 51.1 °F 46.8 °F 85% 29.93 in 10.0 mi WNW 5.8 mph - N/A   Clear
11:12 PM 50.4 °F 46.6 °F 87% 29.93 in 10.0 mi West 5.8 mph - N/A   Clear
11:31 PM 49.8 °F 46.2 °F 87% 29.93 in 10.0 mi WNW 4.6 mph - N/A   Clear
11:52 PM 50.0 °F 46.4 °F 87% 29.93 in 10.0 mi West 5.8 mph - N/A   Clear